TimePST,TemperatureF,Dew PointF,Humidity,Sea Level PressureIn,VisibilityMPH,Wind Direction,Wind SpeedMPH,Gust SpeedMPH,PrecipitationIn,Events,Conditions,WindDirDegrees,DateUTC
12:52 AM,34.0,32.0,92,30.02,-9999.0,Calm,Calm,-,N/A,,Unknown,0,2012-12-25 08:52:00
1:52 AM,32.0,30.0,92,30.02,-9999.0,Calm,Calm,-,N/A,,Unknown,0,2012-12-25 09:52:00
2:52 AM,37.0,32.0,82,30.01,-9999.0,Calm,Calm,-,N/A,,Unknown,0,2012-12-25 10:52:00
3:52 AM,45.0,30.0,56,29.99,-9999.0,Calm,Calm,-,N/A,,Unknown,0,2012-12-25 11:52:00
4:52 AM,44.1,27.0,51,30.01,-9999.0,North,5.8,-,N/A,,Unknown,10,2012-12-25 12:52:00
5:52 AM,43.0,28.0,56,30.01,-9999.0,ENE,6.9,-,N/A,,Unknown,60,2012-12-25 13:52:00
6:52 AM,42.1,25.0,51,30.04,-9999.0,ENE,12.7,-,N/A,,Unknown,70,2012-12-25 14:52:00
7:52 AM,46.0,19.9,35,30.03,-9999.0,ENE,21.9,29.9,N/A,,Unknown,60,2012-12-25 15:52:00
8:52 AM,48.9,19.0,31,30.04,-9999.0,ENE,23.0,28.8,N/A,,Unknown,70,2012-12-25 16:52:00
9:52 AM,50.0,17.1,27,30.05,-9999.0,ENE,23.0,33.4,N/A,,Unknown,70,2012-12-25 17:52:00
10:52 AM,51.1,12.9,22,30.03,-9999.0,ENE,25.3,32.2,N/A,,Unknown,70,2012-12-25 18:52:00
11:52 AM,51.1,10.0,19,30.00,-9999.0,ENE,20.7,29.9,N/A,,Unknown,60,2012-12-25 19:52:00
12:52 PM,53.1,10.9,19,29.98,-9999.0,ENE,17.3,-,N/A,,Unknown,60,2012-12-25 20:52:00
1:52 PM,52.0,10.0,19,29.98,-9999.0,East,13.8,-,N/A,,Unknown,80,2012-12-25 21:52:00
2:52 PM,51.1,10.0,19,29.96,-9999.0,East,12.7,-,N/A,,Unknown,80,2012-12-25 22:52:00
3:52 PM,50.0,12.0,22,29.95,-9999.0,ENE,9.2,-,N/A,,Unknown,70,2012-12-25 23:52:00
4:52 PM,48.0,14.0,26,29.94,-9999.0,North,4.6,-,N/A,,Unknown,360,2012-12-26 00:52:00
5:52 PM,44.1,19.0,37,29.96,-9999.0,Calm,Calm,-,N/A,,Unknown,0,2012-12-26 01:52:00
6:52 PM,41.0,21.0,45,29.98,-9999.0,NNE,4.6,-,N/A,,Unknown,30,2012-12-26 02:52:00
7:52 PM,39.9,23.0,51,29.96,-9999.0,NE,3.5,-,N/A,,Unknown,50,2012-12-26 03:52:00
8:52 PM,37.0,23.0,57,29.97,-9999.0,NNE,5.8,-,N/A,,Unknown,30,2012-12-26 04:52:00
9:52 PM,36.0,24.1,62,29.96,-9999.0,Calm,Calm,-,N/A,,Unknown,0,2012-12-26 05:52:00
10:52 PM,35.1,23.0,61,29.96,-9999.0,NNE,4.6,-,N/A,,Unknown,30,2012-12-26 06:52:00
11:52 PM,32.0,24.1,73,29.95,-9999.0,NE,5.8,-,N/A,,Unknown,50,2012-12-26 07:52:00